Погода в Николаевке

Россия / Еврейская автономная область     48°33′18″N   134°46′51″E
темп.,
°C
ветер,
м/с
пор.,
м/с
влажн.,
%
обл.,
%
осадки,
мм/ч
давл.,
гПа
погр.,
м
24 июля, сб
сб2401:00+26юз2266100 0.0 100612
04:00+25юз3370100 0.0 100746
07:00+26ююз3675100 0.0 1007152
10:00+31юз465854 0.0 1008639
13:00+35зюз4643100 0.0 10072138
16:00+36зсз4543100 0.0 10051806
19:00+34ююв22555 0.0 1005334
22:00+26юв3565100 0.0 100672
25 июля, вс
вс2501:00+25ю226621 0.0 100520
04:00+24ю227560 0.0 100524
07:00+26вюв117558 0.0 100554
10:00+31юз4654100 0.0 1005695
13:00+35ююз683955 0.0 10041682
16:00+34зсз664896 0.0 1003759
19:00+31сз2462100 0.0 1003360
22:00+27юз2270100 0.0 100525
26 июля, пн
пн2601:00+26сз1269100 0.0 100435
04:00+25ю3469100 0.0 100478
07:00+25юз2480100 0.0 1004147
10:00+30ююз4459100 0.0 1004843
13:00+33ююз454587 0.0 10041352
16:00+35ююз3539100 0.0 10022003
19:00+31ссв2356100 0.0 100268
22:00+27св346898 0.0 100253
27 июля, вт
вт2701:00+25в2373100 0.0 100239
04:00+22всв3685100 0.0 1002129
07:00+23всв2386100 0.0 1003136
10:00+30з346073 0.0 1003608
13:00+34з464536 0.0 10021469
16:00+34зсз664321 0.0 10011744
19:00+31ссз4560100 0.0 1000582
22:00+25ссз1178100 0.0 100111
28 июля, ср
ср2801:00+24сз018599 0.0 100111
04:00+22с229262 0.0 100115
07:00+22всв34895 0.0 1002156
10:00+28всв216555 0.0 1001593
13:00+33зюз135038 0.0 10001532
16:00+32сз555485 0.0 9991014
19:00+30ссз4460100 0.0 998669
22:00+25св2277100 0.0 99830